DELTA 1 DEB, 14565

Orbit data source: Space-Track

DELTA 1 DEB, 14565 is space debris in LEO originally from a launch on Thu, 14 Jul 1977 UTC launched from the Air Force Eastern Test Range (AFETR). Debris objects in space refer to the collection of defunct objects orbiting the Earth. Examples of debris include non-operational satellites, rocket bodies, and fragments generated from explosions, collisions, or faulty payload assembly.

Loading next visibility...
Identifier
14565, 1977-065FT
Orbit
LEO
Country
Flag of USUS
Related business
Manufacturer
Unknown
Mission
Spacecraft
Bus & Motor
Unknown
Mass
Unknown
Launch date (UTC)
1977-07-14 (49 years ago)
Launch vehicle
Unknown
Launch site
Air Force Eastern Test Range (AFETR)
Object type
Payload
Rocket body
Debris
Shape & HBR
Unknown shape, 0.1 m
Radar Cross Section
Medium (>0.1 m² and <1 m²)

Expand to show TLE details & history
Last TLE update: 3 days ago

TLE from 3 days ago
0 DELTA 1 DEB
1 14565U 77065FT  26170.53717512 -.00000573  00000-0 -10696-2 0  9994
2 14565  29.2130 327.5920 0851808 334.5362  21.5451 12.49957249 42190
Epoch: 2026-06-19T12:53Z
TLE epoch observation values (Epoch: 2026-06-19T12:53:31.930Z)
Latitude
-0.00001°
Longitude
-133.55579°
Altitude
850.655 km
Speed
7.713 km/s
True Right ascension
21h 50m 22s
True Declination
0° 00' 00"
Sunlit
Object was in daylight at epoch
Visualization orbit readout
Latitude
Unknown
Longitude
Unknown
Altitude
Unknown
Speed
Unknown
Apparent Right ascension
Unknown
Apparent Declination
Unknown
Sunlit
N/A
Visualization observer readout
Local Sidereal Time
05:33:05
Azimuth
Unknown
Elevation
Unknown
Doppler factor
Unknown
Orbital elements
Apogee altitude
2,136.697 km
Perigee altitude
799.96 km
Semi-major axis
7,846.466 km
Eccentricity
0.08518
Inclination
29.213°
RAAN
327.592°
Arg. of periapsis
334.5362°
True anomaly
25.5185°
Mean anomaly
21.5451°
Eccentric anomaly
23.49045°
Mean motion
3.12271 °/min
Orbital period
115.28 mins
BSTAR
-0.0010696
Loading maneuver chart data...
Computing Atmospheric mass density...
Loading historical data...
Loading historical data...
Loading historical data...
Loading historical data...
Loading historical data...
Loading historical data...
Loading historical data...

Documentation

Showing up to 5 results
|